| time (UTC) | temp F | wind direction | speed MPH | gust MPH | rain 1hr in | rain 24hr in | rain mn in | humidity % | barometer mb |
| 20260906103058 | 75 | 278 | 0.0 | 1.0 | 0.00 | 0.00 | 0.00 | 96 | 1013.0 |
| 20260906101604 | 75 | 0 | 0.0 | 3.0 | 0.00 | 0.00 | 0.00 | 96 | 1012.8 |
| 20260906094558 | 75 | 0 | 0.0 | 2.0 | 0.00 | 0.00 | 0.00 | 96 | 1012.8 |
| 20260906093102 | 75 | 0 | 0.0 | 1.0 | 0.00 | 0.00 | 0.00 | 96 | 1012.7 |
| 20260906091600 | 75 | 0 | 0.0 | 2.0 | 0.00 | 0.00 | 0.00 | 95 | 1012.6 |
| 20260906090109 | 75 | 0 | 0.0 | 2.0 | 0.00 | 0.00 | 0.00 | 96 | 1012.5 |
| 20260906084558 | 75 | 0 | 0.0 | 2.0 | 0.00 | 0.00 | 0.00 | 95 | 1012.7 |
| 20260906083100 | 75 | 0 | 0.0 | 2.0 | 0.00 | 0.00 | 0.00 | 95 | 1012.6 |
| 20260906081616 | 75 | 0 | 0.0 | 2.0 | 0.00 | 0.00 | 0.00 | 95 | 1012.5 |
| 20260906080108 | 75 | 0 | 0.0 | 2.0 | 0.00 | 0.00 | 0.00 | 95 | 1012.4 |
| 20260906074613 | 75 | 0 | 0.0 | 1.0 | 0.00 | 0.00 | 0.00 | 95 | 1012.2 |
| 20260906073100 | 75 | 0 | 0.0 | 0.0 | 0.00 | 0.00 | 0.00 | 95 | 1012.4 |
| 20260906071603 | 75 | 0 | 0.0 | 0.0 | 0.00 | 0.00 | 0.00 | 95 | 1012.3 |
| 20260906070057 | 75 | 0 | 0.0 | 1.0 | 0.00 | 0.00 | 0.00 | 94 | 1012.2 |
| 20260906064559 | 75 | 0 | 0.0 | 1.0 | 0.00 | 0.00 | 0.00 | 94 | 1012.4 |
| 20260906063058 | 75 | 0 | 0.0 | 0.0 | 0.00 | 0.00 | 0.00 | 94 | 1012.4 |
| 20260906061610 | 76 | 0 | 0.0 | 0.0 | 0.00 | 0.00 | 0.00 | 94 | 1012.5 |
| 20260906060112 | 76 | 0 | 0.0 | 2.0 | 0.00 | 0.00 | 0.00 | 94 | 1012.5 |
| 20260906054559 | 76 | 0 | 0.0 | 0.0 | 0.00 | 0.00 | 0.00 | 94 | 1012.5 |
| 20260906053100 | 76 | 0 | 0.0 | 0.0 | 0.00 | 0.00 | 0.00 | 94 | 1012.5 |
| 20260906051606 | 76 | 0 | 0.0 | 0.0 | 0.00 | 0.00 | 0.00 | 93 | 1012.8 |
| 20260906050108 | 76 | 0 | 0.0 | 1.0 | 0.00 | 0.00 | 0.00 | 93 | 1012.9 |
| 20260906044559 | 77 | 0 | 0.0 | 0.0 | 0.00 | 0.00 | 0.00 | 92 | 1012.9 |
| 20260906043059 | 77 | 0 | 0.0 | 0.0 | 0.00 | 0.00 | 0.00 | 92 | 1012.9 |
| 20260906041605 | 77 | 0 | 0.0 | 1.0 | 0.00 | 0.00 | 0.00 | 91 | 1013.1 |
| 20260906040105 | 78 | 0 | 0.0 | 0.0 | 0.00 | 0.00 | 0.00 | 90 | 1013.1 |
| 20260906034606 | 78 | 0 | 0.0 | 0.0 | 0.00 | 0.00 | 0.00 | 90 | 1013.3 |
| 20260906033101 | 79 | 0 | 0.0 | 0.0 | 0.00 | 0.00 | 0.00 | 88 | 1013.3 |
| 20260906031607 | 79 | 0 | 0.0 | 2.0 | 0.00 | 0.00 | 0.00 | 88 | 1013.2 |
| 20260906024602 | 80 | 278 | 0.0 | 2.0 | 0.00 | 0.00 | 0.00 | 87 | 1013.0 |
| 20260906023102 | 80 | 0 | 0.0 | 0.0 | 0.00 | 0.00 | 0.00 | 86 | 1012.8 |
| 20260906021608 | 81 | 0 | 0.0 | 1.0 | 0.00 | 0.00 | 0.00 | 85 | 1012.6 |
| 20260906020107 | 81 | 0 | 0.0 | 3.0 | 0.00 | 0.00 | 0.00 | 84 | 1012.3 |
| 20260906014604 | 81 | 252 | 0.0 | 2.0 | 0.00 | 0.00 | 0.00 | 84 | 1012.3 |
| 20260906013103 | 82 | 0 | 0.0 | 4.0 | 0.00 | 0.00 | 0.00 | 83 | 1012.3 |
| 20260906011559 | 83 | 252 | 1.0 | 4.0 | 0.00 | 0.00 | 0.00 | 82 | 1012.3 |
| 20260906010104 | 83 | 0 | 0.0 | 3.0 | 0.00 | 0.00 | 0.00 | 81 | 1012.3 |
| 20260906004604 | 84 | 217 | 0.0 | 4.0 | 0.00 | 0.00 | 0.00 | 79 | 1012.3 |
| 20260906003102 | 85 | 202 | 1.0 | 5.0 | 0.00 | 0.00 | 0.00 | 78 | 1012.1 |
| 20260906001603 | 86 | 179 | 1.0 | 5.0 | 0.00 | 0.00 | 0.00 | 76 | 1012.2 |
| 20260906000108 | 88 | 177 | 0.0 | 7.0 | 0.00 | 0.00 | 0.00 | 74 | 1012.2 |
| 20260905234603 | 89 | 173 | 0.0 | 2.0 | 0.00 | 0.00 | 0.00 | 72 | 1012.3 |
| 20260905233105 | 91 | 78 | 0.0 | 2.0 | 0.00 | 0.00 | 0.00 | 65 | 1012.1 |
| 20260905231609 | 92 | 206 | 2.0 | 5.0 | 0.00 | 0.00 | 0.00 | 64 | 1012.0 |
| 20260905230112 | 92 | 0 | 1.0 | 5.0 | 0.00 | 0.00 | 0.00 | 64 | 1012.1 |
| 20260905224608 | 91 | 192 | 0.0 | 5.0 | 0.00 | 0.00 | 0.00 | 64 | 1011.9 |
| 20260905223107 | 91 | 0 | 1.0 | 4.0 | 0.00 | 0.00 | 0.00 | 64 | 1011.9 |
| 20260905221607 | 91 | 23 | 2.0 | 7.0 | 0.00 | 0.00 | 0.00 | 64 | 1011.9 |
| 20260905220109 | 91 | 349 | 1.0 | 6.0 | 0.00 | 0.00 | 0.00 | 65 | 1012.1 |
| 20260905214603 | 91 | 39 | 3.0 | 6.0 | 0.00 | 0.01 | 0.00 | 65 | 1012.2 |
| 20260905213100 | 91 | 15 | 3.0 | 9.0 | 0.00 | 0.01 | 0.00 | 64 | 1012.2 |
| 20260905211630 | 91 | 63 | 2.0 | 9.0 | 0.00 | 0.01 | 0.00 | 65 | 1012.3 |
| 20260905210120 | 91 | 57 | 3.0 | 10.0 | 0.00 | 0.01 | 0.00 | 64 | 1012.7 |
| 20260905204607 | 91 | 94 | 4.0 | 10.0 | 0.00 | 0.03 | 0.00 | 67 | 1012.7 |
| 20260905203119 | 90 | 75 | 2.0 | 9.0 | 0.00 | 0.03 | 0.00 | 67 | 1012.9 |
| 20260905201604 | 90 | 9 | 4.0 | 9.0 | 0.00 | 0.03 | 0.00 | 68 | 1013.0 |
| 20260905194608 | 90 | 15 | 3.0 | 9.0 | 0.00 | 0.05 | 0.00 | 69 | 1013.1 |
| 20260905193108 | 89 | 38 | 5.0 | 10.0 | 0.00 | 0.05 | 0.00 | 71 | 1013.1 |
| 20260905191605 | 90 | 26 | 2.0 | 9.0 | 0.00 | 0.05 | 0.00 | 70 | 1013.4 |
| 20260905190105 | 89 | 21 | 4.0 | 11.0 | 0.00 | 0.05 | 0.00 | 70 | 1013.6 |
| 20260905184604 | 89 | 51 | 3.0 | 9.0 | 0.00 | 0.15 | 0.00 | 71 | 1013.9 |
| 20260905183107 | 89 | 348 | 6.0 | 16.0 | 0.00 | 0.15 | 0.00 | 70 | 1014.2 |
| 20260905181612 | 89 | 40 | 6.0 | 11.0 | 0.00 | 0.15 | 0.00 | 71 | 1014.5 |
| 20260905180108 | 88 | 352 | 3.0 | 11.0 | 0.00 | 0.15 | 0.00 | 72 | 1014.6 |
| 20260905174600 | 88 | 30 | 3.0 | 9.0 | 0.00 | 0.15 | 0.00 | 74 | 1014.7 |
| 20260905173103 | 87 | 74 | 3.0 | 9.0 | 0.00 | 0.15 | 0.00 | 76 | 1014.9 |
| 20260905171603 | 87 | 335 | 3.0 | 9.0 | 0.00 | 0.15 | 0.00 | 76 | 1015.0 |
| 20260905170105 | 86 | 346 | 4.0 | 9.0 | 0.00 | 0.15 | 0.00 | 76 | 1015.0 |
| 20260905164606 | 85 | 51 | 3.0 | 8.0 | 0.00 | 0.15 | 0.00 | 79 | 1015.3 |
| 20260905163108 | 85 | 39 | 3.0 | 8.0 | 0.00 | 0.15 | 0.00 | 80 | 1015.4 |
| 20260905161604 | 84 | 352 | 1.0 | 5.0 | 0.00 | 0.15 | 0.00 | 82 | 1015.6 |
| 20260905160134 | 83 | 36 | 2.0 | 9.0 | 0.00 | 0.15 | 0.00 | 82 | 1015.7 |
| 20260905154603 | 83 | 54 | 2.0 | 7.0 | 0.00 | 0.15 | 0.00 | 84 | 1015.7 |
| 20260905153056 | 82 | 35 | 2.0 | 7.0 | 0.00 | 0.15 | 0.00 | 85 | 1015.7 |
| 20260905151608 | 82 | 83 | 3.0 | 5.0 | 0.00 | 0.15 | 0.00 | 87 | 1015.5 |
| 20260905150058 | 81 | 56 | 1.0 | 9.0 | 0.00 | 0.15 | 0.00 | 87 | 1015.4 |
| 20260905144558 | 80 | 0 | 1.0 | 4.0 | 0.00 | 0.15 | 0.00 | 90 | 1015.4 |
| 20260905143059 | 78 | 22 | 1.0 | 4.0 | 0.00 | 0.15 | 0.00 | 93 | 1015.3 |
| 20260905141603 | 77 | 0 | 1.0 | 4.0 | 0.00 | 0.15 | 0.00 | 96 | 1015.3 |
| 20260905140059 | 76 | 60 | 1.0 | 3.0 | 0.00 | 0.15 | 0.00 | 99 | 1015.4 |
| 20260905134606 | 76 | 0 | 1.0 | 3.0 | 0.00 | 0.15 | 0.00 | 99 | 1015.3 |
| 20260905133101 | 75 | 337 | 0.0 | 2.0 | 0.00 | 0.15 | 0.00 | 99 | 1015.2 |
| 20260905131606 | 75 | 337 | 1.0 | 4.0 | 0.00 | 0.15 | 0.00 | 99 | 1015.1 |
| 20260905130059 | 75 | 80 | 1.0 | 3.0 | 0.00 | 0.15 | 0.00 | 99 | 1015.0 |
| 20260905124602 | 75 | 296 | 1.0 | 2.0 | 0.00 | 0.15 | 0.00 | 99 | 1014.8 |
| 20260905123105 | 74 | 0 | 0.0 | 2.0 | 0.00 | 0.15 | 0.00 | 99 | 1014.7 |
| 20260905121601 | 74 | 0 | 0.0 | 1.0 | 0.00 | 0.15 | 0.00 | 98 | 1014.6 |
| 20260905120117 | 74 | 0 | 0.0 | 1.0 | 0.00 | 0.15 | 0.00 | 99 | 1014.4 |
| 20260905114605 | 74 | 0 | 0.0 | 1.0 | 0.00 | 0.15 | 0.00 | 99 | 1014.3 |
| 20260905113101 | 74 | 296 | 0.0 | 2.0 | 0.00 | 0.15 | 0.00 | 99 | 1014.3 |
| 20260905111611 | 74 | 0 | 0.0 | 2.0 | 0.00 | 0.15 | 0.00 | 98 | 1014.3 |
| 20260905110100 | 74 | 56 | 0.0 | 2.0 | 0.00 | 0.15 | 0.00 | 98 | 1014.2 |
| 20260905104603 | 74 | 56 | 0.0 | 2.0 | 0.00 | 0.15 | 0.00 | 98 | 1014.2 |